Location: Casilda
(33.0440°S, 61.1680°W)
Time: 20:04:38
(UTC-03:00)

ISS - Pass Details

Date: 28 November 2022
Orbit: 414 x 420 km, 51.6° (Epoch: 02 December)

Event Time Altitude Azimuth Distance (km) Brightness Sun altitude
Exits shadow 04:26:32 - 242° (WSW) 1,612 -1.0 -15.4°
Reaches altitude 10° 04:27:00 10° 235° (SW) 1,523 -1.1 -15.4°
Maximum altitude 04:28:30 12° 209° (SSW) 1,392 -1.0 -15.1°
Drops below altitude 10° 04:30:00 10° 183° (S) 1,530 -0.4 -14.9°
Sets 04:33:12 0° 151° (SSE) 2,403 1.4 -14.4°
